Location: Detroit
(42.3310°N, 83.0460°W)
Time: 12:35:00
(UTC-05:00)

Explorer 7 - Visible Passes

Search period start: 30 January 2023 00:00
Search period end: 09 February 2023 00:00
Orbit: 480 x 660 km, 50.3° (Epoch: 30 January)

Date Brightness Start Highest point End Pass type
(mag) Time Alt. Az. Time Alt. Az. Time Alt. Az.
30 Jan 7.1 19:22:38 10° WNW 19:27:21 87° SW 19:29:21 35° SE visible
30 Jan 9.8 21:03:53 10° W 21:05:28 16° WSW 21:05:28 16° WSW visible
31 Jan 7.5 19:23:40 10° WNW 19:28:18 63° SW 19:31:05 24° SE visible
31 Jan 10.0 21:05:58 10° WSW 21:07:13 12° WSW 21:07:13 12° WSW visible
01 Feb 8.2 19:24:45 10° WNW 19:29:13 44° SW 19:33:03 14° SSE visible
02 Feb 8.9 19:25:57 10° WNW 19:30:03 30° SW 19:34:14 10° SSE visible
03 Feb 9.6 19:27:20 10° W 19:30:51 21° SW 19:34:24 10° S visible
04 Feb 10.0 19:29:10 10° W 19:31:35 14° SW 19:34:01 10° SSW visible
